Regional Weather Roundup
Issued by NWS

Home | Current Version | Previous Version | Text Only | Print | Product List | Glossary Off
Versions: 1 2 3 4 5 6 7 8 9 10 11 12 13 14 15 16 17 18 19 20 21 22 23 24 25 26 27 28 29 30 31 32 33 34 35 36 37 38 39 40 41 42 43 44 45 46 47 48 49 50

000
ASUS43 KOAX 290410
RWRNE

WEATHER ROUNDUP FOR NEBRASKA
NATIONAL WEATHER SERVICE OMAHA NE
1100 PM CDT THU AUG 28 2014

NOTES: SATELLITE DATA IS BEING USED TO AUGMENT CLOUD COVER ABOVE
       12000 FEET.
       "FAIR" INDICATES FEW OR NO CLOUDS BELOW 12,000 FEET WITH NO
       SIGNIFICANT WEATHER AND/OR OBSTRUCTIONS TO VISIBILITY.

  * THESE STATIONS DO NOT REPORT WEATHER SUCH AS RAIN...SNOW OR FOG.

NEZ001>004-019>022-054>056-290500-
NEBRASKA PANHANDLE

CITY           SKY/WX    TMP DP  RH WIND       PRES   REMARKS
SCOTTSBLUFF    PTCLDY    56  54  93 E5        30.02R
ALLIANCE       MOCLDY    60  54  80 CALM      30.00R
CHADRON        PTCLDY    60  53  77 CALM      29.96S
KIMBALL        PTCLDY    55  51  89 W7        30.07R
SIDNEY         CLOUDY    62  54  74 NW6       30.05S
$$

NEZ057>060-069>072-079>082-290500-
SOUTHWEST NEBRASKA

CITY           SKY/WX    TMP DP  RH WIND       PRES   REMARKS
NORTH PLATTE   PTCLDY    61  59  93 NW6       29.94R
IMPERIAL       PTCLDY    62  57  83 W7        29.97F
LEXINGTON      MOCLDY    67  64  90 N6        29.90R
MCCOOK         PTCLDY    66  57  72 NW9       29.93R
OGALLALA       MOCLDY    57  55  93 CALM      29.98R
$$

NEZ005>010-023>029-035>040-094-290500-
NORTH CENTRAL NEBRASKA

CITY           SKY/WX    TMP DP  RH WIND       PRES   REMARKS
VALENTINE      MOCLDY    65  63  93 W3        29.89S
AINSWORTH      PTCLDY    59  58  97 S3        29.88F
BROKEN BOW     MOCLDY    65  62  90 SW5       29.89S
O`NEILL        RAIN      67  67  97 N7        29.83F
ORD            CLOUDY    66  63  90 W3        29.86R
THEDFORD       PTCLDY    59  57  92 W5        29.93R
$$

NEZ041-046>049-061>064-073>077-083>087-290500-
SOUTH CENTRAL NEBRASKA

CITY           SKY/WX    TMP DP  RH WIND       PRES   REMARKS
GRAND ISLAND   MOCLDY    73  69  87 S5        29.84S
AURORA         CLOUDY    71  70  97 S3        29.86R
HASTINGS       CLOUDY    71  62  73 S7        29.85R
HEBRON         CLOUDY    72  64  75 S5        29.84S
HOLDREGE       MOCLDY    71  65  81 S7        29.87R
KEARNEY *      MOCLDY    73  64  73 SW7       29.86S
YORK           CLOUDY    70 N/A N/A S5        29.85R
$$

NEZ011>018-030>034-042>045-290500-
NORTHEAST NEBRASKA

CITY           SKY/WX    TMP DP  RH WIND       PRES   REMARKS
NORFOLK        LGT RAIN  73  69  87 SE8       29.83F
ALBION         CLOUDY    71  64  78 N8        29.84S
BLAIR          CLOUDY    75  73  91 SE6       29.86R
FREMONT        MOCLDY    73  69  88 SE6       29.85S
TEKAMAH        PTCLDY    72  70  93 CALM      29.85R FOG
WAYNE          CLOUDY    72  70  93 SE8       29.85S
$$

NEZ050>053-065>068-078-088>093-290500-
SOUTHEAST NEBRASKA

CITY           SKY/WX    TMP DP  RH WIND       PRES   REMARKS
LINCOLN        CLOUDY    73  68  84 SE6       29.85S
OMAHA EPPLEY   MOCLDY    74  70  87 SE7       29.85R
BEATRICE       CLOUDY    73  69  89 SE5       29.85S
FALLS CITY     CLOUDY    75  73  93 E3        29.85F
NEBRASKA CITY  MOCLDY    72  72 100 CALM      29.87S
PLATTSMOUTH    CLOUDY    73  70  88 E6        29.87R
$$

NEZ044-045-051>053-067-290500-
OMAHA AREA

CITY           SKY/WX    TMP DP  RH WIND       PRES   REMARKS
OMAHA EPPLEY   MOCLDY    74  70  87 SE7       29.85R
BLAIR          CLOUDY    75  73  91 SE6       29.86R
FREMONT        MOCLDY    73  69  88 SE6       29.85S
MILLARD        MOCLDY    76  73  91 SE5       29.85S
OFFUTT AFB     PTCLDY    74  74 100 E5        29.85R
PLATTSMOUTH    CLOUDY    73  70  88 E6        29.87R
WAHOO          FAIR      70  67  89 SE5       29.85R
$$


USA.gov is the U.S. government's official web portal to all federal, state and local government web resources and services.